Weather reports worldwide

Advertisment
The Dalles, or, United States of America (2074393): temperature & dewpoint: 17.03.2019 02:00:00 - 23.03.2019 02:00:00 (PDT)The Dalles, or, United States of America (2074393): wind speed & gusts: 17.03.2019 02:00:00 - 23.03.2019 02:00:00 (PDT)The Dalles, or, United States of America (2074393): wind direction: 17.03.2019 02:00:00 - 23.03.2019 02:00:00 (PDT)The Dalles, or, United States of America (2074393): reduced air pressure: 17.03.2019 02:00:00 - 23.03.2019 02:00:00 (PDT)The Dalles, or, United States of America (2074393): visibility: 17.03.2019 02:00:00 - 23.03.2019 02:00:00 (PDT)The Dalles, or, United States of America (2074393): precipitation: 17.03.2019 02:00:00 - 23.03.2019 02:00:00 (PDT)
Date & Time tt [°C] td [°C] ff [km/h] ff [kn] fx [km/h] fx [kn] dd ppp [hPa] vv [km] rr [mm]
23.03.2019 02:00:00 8,9 4,4 11 6 - - NW 1018,8 16 -
23.03.2019 01:00:00 10,6 4,4 8 4 - - WNW 1018,6 16 -
23.03.2019 00:00:00 10,6 4,4 0 0 - - N 1018,0 16 -
22.03.2019 23:00:00 9,4 5,0 8 4 - - SSW 1017,5 16 -
22.03.2019 22:00:00 10,0 5,0 0 0 - - N 1016,9 16 -
22.03.2019 21:00:00 10,0 5,6 11 6 - - SW 1016,2 16 -
22.03.2019 20:00:00 11,7 5,0 9 5 - - WSW 1015,7 16 0,0
22.03.2019 19:00:00 12,8 6,1 13 7 - - N 1014,6 16 0,0
22.03.2019 18:00:00 13,9 4,4 21 11 - - WNW 1014,8 16 -
22.03.2019 17:00:00 14,4 4,4 28 15 - - NNW 1013,6 16 -
22.03.2019 16:00:00 15,6 3,9 35 19 50 27 NW 1013,2 16 -
22.03.2019 15:00:00 16,7 3,9 31 17 - - NNW 1012,7 16 -
22.03.2019 14:00:00 17,2 4,4 5 3 - - - 1012,5 16 -
22.03.2019 13:00:00 17,2 5,0 0 0 - - N 1012,6 16 -
22.03.2019 12:00:00 13,9 5,6 5 3 - - - 1013,5 16 -
22.03.2019 11:00:00 11,1 5,0 0 0 - - N 1014,0 16 -
22.03.2019 10:00:00 7,8 3,9 5 3 - - NNW 1014,5 16 -
22.03.2019 09:00:00 5,6 2,8 0 0 - - N 1014,6 16 -
22.03.2019 08:00:00 3,3 1,1 5 3 - - SE 1014,7 16 -
22.03.2019 07:00:00 3,9 1,7 0 0 - - N 1014,5 16 -
22.03.2019 06:00:00 5,0 2,2 0 0 - - N 1014,5 16 -
22.03.2019 05:00:00 5,0 2,2 13 7 - - WNW 1014,3 16 -
22.03.2019 04:00:00 5,6 1,7 0 0 - - N 1014,4 16 -
22.03.2019 03:00:00 6,7 2,8 0 0 - - N 1015,0 16 -
22.03.2019 02:00:00 6,7 2,8 8 4 - - SSE 1015,2 16 -
22.03.2019 01:00:00 7,8 2,8 0 0 - - N 1015,5 16 -
22.03.2019 00:00:00 10,0 4,4 15 8 - - NW 1015,6 16 -
21.03.2019 23:00:00 11,1 4,4 18 10 - - NNW 1015,7 16 -
21.03.2019 22:00:00 11,1 4,4 22 12 - - NW 1015,7 16 -
21.03.2019 21:00:00 11,7 4,4 21 11 - - NW 1015,8 16 -
21.03.2019 20:00:00 12,2 4,4 21 11 - - NW 1015,7 16 -
21.03.2019 19:00:00 13,3 4,4 22 12 - - NW 1015,3 16 -
21.03.2019 18:00:00 14,4 4,4 26 14 - - NNW 1014,7 16 -
21.03.2019 17:00:00 15,0 3,9 31 17 - - NNW 1014,5 16 -
21.03.2019 16:00:00 17,2 4,4 29 16 - - NNW 1014,7 16 -
21.03.2019 15:00:00 16,1 4,4 28 15 - - NNW 1015,1 16 -
21.03.2019 14:00:00 16,7 5,0 29 16 - - NNW 1015,4 16 -
21.03.2019 13:00:00 16,1 5,0 29 16 - - NNW 1016,1 16 -
21.03.2019 12:00:00 14,4 5,0 28 15 - - NNW 1016,6 16 -
21.03.2019 11:00:00 12,8 3,9 24 13 - - NNW 1017,2 16 -
21.03.2019 10:00:00 11,7 2,8 26 14 - - NW 1017,4 16 -
21.03.2019 09:00:00 10,0 2,8 22 12 - - NW 1017,4 16 -
21.03.2019 08:00:00 7,8 2,2 9 5 - - - 1017,5 16 -
21.03.2019 07:00:00 6,1 1,7 0 0 - - N 1017,4 16 -
21.03.2019 06:00:00 5,6 2,2 8 4 - - S 1017,3 16 -
21.03.2019 05:00:00 5,6 1,7 5 3 - - E 1017,2 16 -
21.03.2019 04:00:00 4,4 1,1 8 4 - - S 1017,0 16 -
21.03.2019 03:00:00 4,4 1,7 0 0 - - N 1016,9 16 -
21.03.2019 02:00:00 4,4 1,7 0 0 - - N 1017,0 16 -
21.03.2019 01:00:00 5,0 1,1 8 4 - - WNW 1016,7 16 -
21.03.2019 00:00:00 6,7 1,7 5 3 - - WSW 1016,6 16 -
20.03.2019 23:00:00 7,2 1,7 11 6 - - E 1016,3 16 -
20.03.2019 22:00:00 8,3 2,2 0 0 - - N 1015,7 16 -
20.03.2019 21:00:00 10,6 1,7 0 0 - - N 1015,1 16 -
20.03.2019 20:00:00 11,7 2,2 9 5 - - WSW 1014,4 16 -
20.03.2019 19:00:00 15,0 3,9 5 3 - - ENE 1014,1 16 -
20.03.2019 18:00:00 17,2 2,8 9 5 - - ESE 1014,1 16 -
20.03.2019 17:00:00 16,7 2,8 11 6 - - - 1014,2 16 -
20.03.2019 16:00:00 16,1 3,3 8 4 - - E 1014,3 16 -
20.03.2019 15:00:00 16,1 3,3 21 11 - - E 1014,6 16 -
20.03.2019 14:00:00 15,0 3,3 9 5 - - ENE 1015,6 16 -
20.03.2019 13:00:00 12,8 3,3 0 0 - - N 1016,6 16 -
20.03.2019 12:00:00 11,1 2,8 5 3 - - ESE 1017,0 16 -
20.03.2019 11:00:00 8,9 2,8 0 0 - - N 1017,5 16 -
20.03.2019 10:00:00 5,6 1,1 0 0 - - N 1017,9 16 -
20.03.2019 09:00:00 2,8 0,6 5 3 - - SSE 1018,2 15 -
20.03.2019 08:00:00 0,6 -1,1 0 0 - - N 1018,4 10 -
20.03.2019 07:00:00 0,6 -1,1 0 0 - - N 1018,3 13 -
20.03.2019 06:00:00 0,0 -1,7 5 3 - - S 1018,4 16 -
20.03.2019 05:00:00 1,1 -0,6 5 3 - - E 1018,7 15 -
20.03.2019 04:00:00 1,1 -1,1 0 0 - - N 1019,0 16 -
20.03.2019 03:00:00 1,7 -0,6 0 0 - - N 1019,3 16 -
20.03.2019 02:00:00 2,8 0,0 0 0 - - N 1019,4 16 -
20.03.2019 01:00:00 2,8 0,0 5 3 - - SSE 1019,7 16 -
20.03.2019 00:00:00 4,4 0,6 5 3 - - ESE 1019,9 16 -
19.03.2019 23:00:00 5,0 1,1 9 5 - - ESE 1020,0 16 -
19.03.2019 22:00:00 6,7 1,7 5 3 - - - 1019,8 16 -
19.03.2019 21:00:00 8,9 2,2 5 3 - - SE 1019,8 16 -
19.03.2019 20:00:00 8,9 2,8 0 0 - - N 1019,4 16 -
19.03.2019 19:00:00 12,8 2,8 5 3 - - S 1019,0 16 -
19.03.2019 18:00:00 13,9 3,3 8 4 - - SSE 1019,2 16 -
19.03.2019 17:00:00 14,4 3,3 9 5 - - S 1020,0 16 -
19.03.2019 16:00:00 13,9 2,8 11 6 - - E 1020,7 16 -
19.03.2019 15:00:00 13,9 2,8 8 4 - - E 1021,5 16 -
19.03.2019 14:00:00 12,8 2,8 9 5 - - - 1022,6 16 -
19.03.2019 13:00:00 11,7 2,8 8 4 - - - 1023,5 16 -
19.03.2019 12:00:00 9,4 2,2 0 0 - - N 1024,3 16 -
19.03.2019 11:00:00 6,7 1,7 0 0 - - N 1025,0 16 -
19.03.2019 10:00:00 4,4 1,1 0 0 - - N 1025,1 15 -
19.03.2019 09:00:00 2,2 -0,6 0 0 - - N 1025,1 11 -
19.03.2019 08:00:00 -0,6 -2,2 0 0 - - N 1025,1 15 -
19.03.2019 07:00:00 -1,1 -2,8 0 0 - - N 1024,8 13 -
19.03.2019 06:00:00 -0,6 -2,2 0 0 - - N 1024,6 11 -
19.03.2019 05:00:00 0,0 -1,7 0 0 - - N 1024,8 15 -
19.03.2019 04:00:00 0,6 -1,7 0 0 - - N 1024,9 16 -
19.03.2019 03:00:00 2,2 -0,6 0 0 - - N 1025,2 16 -
19.03.2019 02:00:00 2,2 -0,6 0 0 - - N 1025,2 16 -
19.03.2019 01:00:00 2,2 -0,6 0 0 - - N 1025,0 16 -
19.03.2019 00:00:00 3,3 0,0 9 5 - - E 1025,0 16 -
18.03.2019 23:00:00 3,3 0,0 11 6 - - E 1024,8 16 -
18.03.2019 22:00:00 5,0 0,6 9 5 - - ESE 1024,6 16 -
18.03.2019 21:00:00 6,1 1,7 11 6 - - ESE 1024,4 16 -
18.03.2019 20:00:00 8,9 1,7 5 3 - - ENE 1024,0 16 -
18.03.2019 19:00:00 11,1 2,2 0 0 - - N 1024,1 16 -
18.03.2019 18:00:00 12,2 2,2 5 3 - - E 1024,2 16 -
18.03.2019 17:00:00 12,8 2,2 16 9 - - E 1024,9 16 -
18.03.2019 16:00:00 12,8 2,2 13 7 - - E 1025,3 16 -
18.03.2019 15:00:00 12,2 2,8 15 8 - - ENE 1025,9 16 -
18.03.2019 14:00:00 12,2 2,8 16 9 - - E 1026,4 16 -
18.03.2019 13:00:00 11,1 2,2 13 7 - - ENE 1027,0 16 -
18.03.2019 12:00:00 9,4 2,2 9 5 - - - 1027,6 16 -
18.03.2019 11:00:00 6,1 0,6 5 3 - - S 1028,0 16 -
18.03.2019 10:00:00 3,9 -0,6 0 0 - - N 1028,2 16 -
18.03.2019 09:00:00 1,7 -1,1 5 3 - - E 1028,4 16 -
18.03.2019 08:00:00 -1,1 -2,8 5 3 - - ESE 1028,4 15 -
18.03.2019 07:00:00 -1,1 -2,8 0 0 - - N 1028,3 10 -
18.03.2019 06:00:00 -1,1 -3,3 8 4 - - SSE 1028,1 16 -
18.03.2019 05:00:00 -0,6 -2,8 0 0 - - N 1028,2 13 -
18.03.2019 04:00:00 0,6 -1,7 5 3 - - E 1028,2 13 -
18.03.2019 03:00:00 1,1 -1,7 0 0 - - N 1028,2 16 -
18.03.2019 02:00:00 1,1 -2,2 9 5 - - ESE 1028,2 16 -
18.03.2019 01:00:00 1,7 -1,7 8 4 - - ESE 1028,5 16 -
18.03.2019 00:00:00 2,2 -1,1 5 3 - - SE 1028,7 16 -
17.03.2019 23:00:00 3,3 -0,6 8 4 - - ESE 1028,7 16 -
17.03.2019 22:00:00 3,9 0,0 11 6 - - ESE 1028,1 16 -
17.03.2019 21:00:00 5,0 0,6 5 3 - - SE 1027,8 16 -
17.03.2019 20:00:00 6,7 1,1 8 4 - - E 1027,8 16 -
17.03.2019 19:00:00 9,4 1,7 11 6 - - E 1028,0 16 -
17.03.2019 18:00:00 11,7 1,7 13 7 - - ENE 1028,2 16 -
17.03.2019 17:00:00 12,2 1,7 18 10 - - E 1028,5 16 -
17.03.2019 16:00:00 12,2 1,1 11 6 - - E 1028,7 16 -
17.03.2019 15:00:00 11,7 1,7 11 6 - - ESE 1028,9 16 -
17.03.2019 14:00:00 10,6 1,7 9 5 - - ESE 1029,4 16 -
17.03.2019 13:00:00 10,0 1,7 8 4 - - - 1029,9 16 -
17.03.2019 12:00:00 7,8 1,1 8 4 - - - 1030,3 16 -
17.03.2019 11:00:00 5,6 0,0 0 0 - - N 1030,7 16 -
17.03.2019 10:00:00 3,3 -0,6 0 0 - - N 1030,7 16 -
17.03.2019 09:00:00 1,7 -0,6 0 0 - - N 1030,9 11 -
17.03.2019 08:00:00 -1,1 -2,2 0 0 - - N 1030,2 10 -
17.03.2019 07:00:00 -0,6 -2,8 5 3 - - SSE 1029,5 15 -
17.03.2019 06:00:00 0,0 -1,7 5 3 - - SE 1029,0 11 -
17.03.2019 05:00:00 0,0 -1,7 0 0 - - N 1028,8 11 -
17.03.2019 04:00:00 0,6 -1,7 5 3 - - E 1028,5 13 -
17.03.2019 03:00:00 1,7 -1,1 8 4 - - ESE 1028,6 16 -
17.03.2019 02:00:00 2,2 -0,6 0 0 - - N 1028,4 16 -

tt = temperature
td = dewpoint
ff = wind speed
fx = gusts
dd = wind direction
ppp = reduced air pressure
vv = visibility
rr = precipitation

Next stations